Flag for U.S.A. Weather past 2 weeks in Naples, Florida, U.S.A.

Now
66 °F

Sunny.


Feels Like: 66 °F
Forecast: 57 / 76 °F
Wind: 6 mph from East

Location: Naples Municipal

Current Time: Mar 30, 2015 at 10:35:45 AM

Latest Report: Mar 30, 2015 at 9:53 AM


Visibility: 10 mi

Pressure: 30.25 "Hg

Humidity: 59%

Dew point: 51 °F

Location of NaplesLocation

Historic Weather in Naples — Graph

°F

Naples temperature yesterday

Maximum temperature yesterday: 79 °F (at 3:53 PM)
Minimum temperature yesterday: 55 °F (at 6:53 AM)
Average temperature yesterday: 66 °F

Past Weeks' High & Low Weather Summary

 TemperatureHumidityPressure
High86 °F (Mar 26, 2:00 PM)100% (Mar 22, 5:53 AM)30.32 "Hg (Mar 22, 5:53 AM)
Low52 °F (Mar 30, 6:53 AM)29% (Mar 29, 3:53 PM)29.88 "Hg (Mar 27, 2:53 PM)
Average73 °F74%30.05 "Hg
* Reported Mar 15 8:53 AM — Mar 30 8:53 AM, Naples, Weather by CustomWeather, © 2015

Note: Actual official high and low records may vary slightly from our data, if they occured in-between our weather recording intervals... More about our weather records

Advertising

Naples weather history for previous 24 hours

 ConditionsComfort  
Time TempWeatherWind HumidityBarometerVisibility
8:53 AM
Mon, Mar 30
58 °FSunny.7 mph75%30.26 "Hg10 mi
7:53 AM53 °FClear.8 mph86%30.24 "Hg10 mi
6:53 AM52 °FClear.5 mph89%30.23 "Hg10 mi
5:53 AM53 °FClear.7 mph86%30.22 "Hg10 mi
4:53 AM53 °FClear.7 mph86%30.22 "Hg10 mi
3:53 AM53 °FClear.6 mph83%30.24 "Hg10 mi
2:53 AM53 °FClear.6 mph80%30.24 "Hg10 mi
1:53 AM55 °FClear.7 mph72%30.26 "Hg10 mi
12:53 AM57 °FClear.8 mph64%30.27 "Hg10 mi
11:53 PM
Sun, Mar 29
60 °FClear.12 mph56%30.28 "Hg10 mi
10:53 PM62 °FClear.13 mph56%30.29 "Hg10 mi
9:53 PM65 °FClear.3 mph51%30.28 "Hg10 mi
8:53 PM67 °FClear.6 mph45%30.26 "Hg10 mi
7:53 PM69 °FSunny.7 mph41%30.23 "Hg10 mi
6:53 PM74 °FSunny.10 mph33%30.23 "Hg10 mi
5:53 PM77 °FSunny.6 mph29%30.22 "Hg10 mi
4:53 PM77 °FSunny.12 mph30%30.23 "Hg10 mi
3:53 PM79 °FSunny.10 mph29%30.24 "Hg10 mi
2:53 PM77 °FSunny.9 mph30%30.26 "Hg10 mi
1:53 PM76 °FSunny.9 mph32%30.28 "Hg10 mi
12:53 PM73 °FSunny.6 mph32%30.31 "Hg10 mi
11:53 AM70 °FSunny.14 mph35%30.32 "Hg10 mi
10:53 AM67 °FSunny.14 mph41%30.32 "Hg10 mi
Weather by CustomWeather, © 2015

See weather overviewHow to use our weather pages